C/2018 A1 ( PanSTARRS )

Japanese version
Home page
Updated on February 13, 2018

---------------------------------------------------------------------

* Profile

Discovery Date January 6, 2018
Magnitude 19.1 mag
Discoverer Pan-STARRS 1 telescope (Haleakala)

* Pictures

* Orbital Elements

Epoch 2017 Oct. 14.0 TT = JDT 2458040.5
T 2017 Oct. 20.46246 TT                                 MPCW
q   2.4203647            (2000.0)            P               Q
n   0.00765354     Peri.   96.41664     +0.13173067     -0.93836937
a  25.5012235      Node   336.60208     +0.21944685     +0.34196283
e   0.9050883      Incl.   53.57848     +0.96669029     +0.05024294
P 129
From 55 observations 2018 Jan. 6-25, mean residual 0".4.

* Magnitudes Graph

        m1 = 12.5 + 5 log d + 10.0 log r

---------------------------------------------------------------------

The orbital elements are published on M.P.E.C. 2018-B155.
The magnitudes graphs are made with Comet for Windows.

---------------------------------------------------------------------

Copyright(C) Seiichi Yoshida (comet@aerith.net). All rights reserved.